Zurück zum Katalog

STARLINK-31098

AktivKommunikationVLEO
NORAD 58716·PAYLOAD·🇺🇸 United States

Gestartet Jan 3, 2024 von Vandenberg Space Force Base

Loading…

Nächste Überflüge (nächste 24 Stunden)

TLE

AktuellSource: CelesTrak SupGP

Epoche: Sep 14, 2026, 20:35 UTC

1 58716C 24002M   26257.85812500  .00014889  00000+0  44002-3 0  2575
2 58716  53.1591  70.0664 0001247  86.3662 317.8652 15.34375175    15

Verfolge STARLINK-31098 in Echtzeit mit AllMySat

Download on the App Store